DateTimeUTC,F1_A11,F1_S11,BsB_S11,BsG_S11,BsR_S11,BbsB_S11,BbsG_S11,BbsR_S11,BaB_A11,BaG_A11,BaR_A11,Tu_S11,T_S11,Uu_S11,U_S11,P_S11,T1_A11
2021-03-26T12:00:00Z,00000200,21000000,,,,,,,0000.23,-000.20,0001.01,16.4,23.7,,00.0,0630.2,30.9
2021-03-26T12:01:00Z,00000200,21000000,,,,,,,0000.26,0000.63,-000.20,16.4,23.7,,00.0,0630.3,30.9
2021-03-26T12:02:00Z,00000200,21000000,,,,,,,-000.09,-000.11,0000.29,16.4,23.7,,00.0,0630.3,30.9
2021-03-26T12:03:00Z,00000200,61000000,,,,,,,0002.78,0002.83,0002.12,16.4,23.7,,00.0,0630.3,30.9
2021-03-26T12:04:00Z,00000200,41000000,0005.53,0003.33,0002.05,0000.91,0000.34,0000.42,0003.52,0002.63,0002.11,16.6,23.5,,00.0,0631.1,30.9
2021-03-26T12:05:00Z,00000200,01000000,0005.79,0003.58,0002.09,0000.50,0000.32,0000.64,0003.71,0003.96,0002.90,16.7,23.5,,00.0,0631.2,30.9
2021-03-26T12:06:00Z,00000200,01000000,0005.29,0003.41,0001.78,0001.01,0000.60,0000.50,0003.64,0003.11,0002.55,16.7,23.5,,00.0,0631.2,30.9
2021-03-26T12:07:00Z,00000200,01000000,0005.27,0003.30,0001.79,0000.77,0000.61,0000.46,0003.10,0003.36,0002.14,16.8,23.5,,00.0,0631.2,30.9
2021-03-26T12:08:00Z,00000200,01000000,0005.99,0003.30,0001.88,0000.84,0000.71,0000.59,0003.48,0002.67,0002.92,16.8,23.5,,00.0,0631.2,30.9
2021-03-26T12:09:00Z,00000200,01000000,0005.17,0003.42,0001.85,0000.53,0000.57,0000.17,0003.60,0003.14,0002.08,16.7,23.5,,00.0,0631.2,30.9
2021-03-26T12:10:00Z,00000200,01000000,0006.54,0003.50,0001.81,0000.40,0000.66,0000.49,0003.12,0003.33,0002.65,16.7,23.5,,00.0,0631.1,30.8
2021-03-26T12:11:00Z,00000200,01000000,0006.24,0003.56,0002.00,0001.11,0000.76,0000.67,0003.39,0002.78,0002.19,16.5,23.4,,00.0,0631.1,30.8
2021-03-26T12:12:00Z,00000200,01000000,0005.46,0003.58,0002.12,0000.80,0000.62,0000.52,0003.65,0003.35,0002.54,16.4,23.4,,00.0,0631.1,30.8
2021-03-26T12:13:00Z,00000200,01000000,0005.71,0003.62,0001.83,0001.35,0000.45,0000.29,0003.37,0003.06,0002.53,16.3,23.3,,00.0,0631.2,30.8
2021-03-26T12:14:00Z,00000200,01000000,0006.34,0003.18,0002.25,0001.09,0000.60,0000.41,0003.18,0003.41,0002.06,16.2,23.3,,00.0,0631.1,30.8
2021-03-26T12:15:00Z,00000200,01000000,0005.49,0003.27,0001.97,0000.54,0000.59,0000.17,0003.91,0003.08,0003.04,16.1,23.2,,00.0,0631.2,30.8
2021-03-26T12:16:00Z,00000200,01000000,0005.75,0003.62,0001.97,0000.97,0000.58,0000.39,0003.31,0003.32,0002.17,16.1,23.1,,00.0,0631.2,30.7
2021-03-26T12:17:00Z,00000200,01000000,0005.65,0003.52,0002.13,0000.15,0000.61,0000.62,0003.76,0003.16,0002.68,16.1,23.1,,00.0,0631.2,30.8
2021-03-26T12:18:00Z,00000200,01000000,0005.92,0003.54,0001.86,0001.25,0000.45,0000.45,0003.47,0003.52,0002.47,16.2,23.1,,00.0,0631.2,30.8
2021-03-26T12:19:00Z,00000200,01000000,0005.54,0003.57,0002.09,0000.74,0000.59,0000.67,0003.62,0003.50,0002.85,16.2,23.1,,00.0,0631.2,30.8
2021-03-26T12:20:00Z,00000200,01000000,0005.31,0003.49,0001.90,0000.51,0000.79,0000.66,0003.56,0003.11,0002.53,16.3,23.1,,00.0,0631.2,30.8
2021-03-26T12:21:00Z,00000200,01000000,0005.77,0003.65,0001.75,0000.84,0000.61,0000.53,0003.38,0003.40,0002.74,16.3,23.2,,00.0,0631.2,30.8
2021-03-26T12:22:00Z,00000200,01000000,0006.02,0003.61,0002.01,0000.98,0000.57,0000.27,0004.08,0003.35,0002.57,16.4,23.2,,00.0,0631.2,30.8
2021-03-26T12:23:00Z,00000200,01000000,0005.50,0004.00,0001.87,0000.56,0000.50,0000.42,0003.34,0003.18,0002.74,16.4,23.2,,00.0,0631.2,30.9
2021-03-26T12:24:00Z,00000200,01000000,0005.45,0003.39,0001.90,0000.83,0000.39,0000.44,0003.94,0003.57,0002.34,16.5,23.2,,00.0,0631.2,30.9
2021-03-26T12:25:00Z,00000200,01000000,0006.49,0003.59,0002.25,0000.88,0000.54,0000.54,0003.71,0003.44,0003.00,16.5,23.2,,00.0,0631.2,30.9
2021-03-26T12:26:00Z,00000200,01000000,0005.89,0003.63,0002.38,0000.88,0000.46,0000.32,0003.87,0003.57,0002.96,16.5,23.3,,00.0,0631.3,30.9
2021-03-26T12:27:00Z,00000200,01000000,0005.48,0003.67,0002.29,0000.61,0000.59,0000.50,0003.91,0003.55,0002.59,16.6,23.3,,00.0,0631.2,30.9
2021-03-26T12:28:00Z,00000200,01000000,0006.23,0003.38,0001.98,0000.95,0000.47,0000.38,0003.54,0003.18,0002.91,16.6,23.3,,00.0,0631.2,30.9
2021-03-26T12:29:00Z,00000200,01000000,0005.29,0003.50,0001.97,0001.02,0000.77,0000.51,0003.66,0003.83,0002.62,16.6,23.3,,00.0,0631.2,30.9
2021-03-26T12:30:00Z,00000200,01000000,0006.70,0003.66,0001.94,0000.85,0000.63,0000.50,0004.00,0003.55,0002.58,16.6,23.3,,00.0,0631.2,30.9
2021-03-26T12:31:00Z,00000200,01000000,0005.71,0003.87,0002.06,0000.96,0000.61,0000.40,0003.66,0002.92,0002.80,16.7,23.4,,00.0,0631.2,30.9
2021-03-26T12:32:00Z,00000200,01000000,0005.22,0003.56,0001.87,0001.07,0000.77,0000.60,0003.83,0003.85,0002.28,16.7,23.4,,00.0,0631.3,30.9
2021-03-26T12:33:00Z,00000200,01000000,0005.41,0003.85,0001.90,0000.56,0000.48,0000.44,0003.67,0003.49,0002.57,16.8,23.4,,00.0,0631.3,30.9
2021-03-26T12:34:00Z,00000200,01000000,0005.97,0003.86,0002.06,0001.10,0000.68,0000.39,0003.72,0003.57,0003.09,16.8,23.4,,00.0,0631.3,30.9
2021-03-26T12:35:00Z,00000200,01000000,0006.71,0003.61,0002.10,0001.20,0000.53,0000.38,0003.81,0003.56,0002.84,16.8,23.4,,00.0,0631.3,30.9
2021-03-26T12:36:00Z,00000200,01000000,0005.11,0003.75,0002.15,0001.04,0000.65,0000.53,0003.71,0003.23,0002.40,16.9,23.5,,00.0,0631.3,30.9
2021-03-26T12:37:00Z,00000200,01000000,0004.83,0003.71,0001.98,0000.42,0000.38,0000.47,0003.60,0003.09,0002.78,16.9,23.5,,00.0,0631.3,30.9
2021-03-26T12:38:00Z,00000200,01000000,0005.48,0003.50,0002.18,0000.84,0000.52,0000.58,0003.78,0003.35,0002.51,16.9,23.5,,00.0,0631.3,30.9
2021-03-26T12:39:00Z,00000200,01000000,0005.48,0003.57,0001.89,0000.85,0000.43,0000.73,0004.07,0004.17,0002.86,16.9,23.5,,00.0,0631.3,30.9
2021-03-26T12:40:00Z,00000200,01000000,0005.14,0003.61,0001.99,0000.77,0000.46,0000.38,0003.58,0002.80,0003.01,17.0,23.6,,00.0,0631.3,30.9
2021-03-26T12:41:00Z,00000200,01000000,0005.36,0003.52,0001.85,0000.92,0000.63,0000.43,0003.42,0003.30,0002.35,17.0,23.6,,00.0,0631.3,30.9
2021-03-26T12:42:00Z,00000200,01000000,0005.52,0003.74,0002.23,0000.54,0000.68,0000.59,0003.70,0003.47,0002.29,17.0,23.5,,00.0,0631.3,30.9
2021-03-26T12:43:00Z,00000200,01000000,0006.22,0003.92,0002.01,0001.07,0000.61,0000.16,0003.76,0003.97,0002.91,16.9,23.5,,00.0,0631.3,30.9
2021-03-26T12:44:00Z,00000200,01000000,0005.60,0003.75,0001.95,0001.02,0000.19,0000.37,0003.88,0003.05,0002.46,16.8,23.5,,00.0,0631.3,30.9
2021-03-26T12:45:00Z,00000200,01000000,0005.76,0004.00,0002.40,0000.67,0000.49,0000.63,0003.77,0003.28,0002.74,16.7,23.4,,00.0,0631.3,30.8
2021-03-26T12:46:00Z,00000200,01000000,0005.74,0003.63,0002.17,0001.12,0000.53,0000.57,0003.93,0003.54,0002.91,16.7,23.4,,00.0,0631.3,30.8
2021-03-26T12:47:00Z,00000200,01000000,0006.10,0003.48,0002.03,0001.20,0000.74,0000.53,0003.36,0003.48,0002.39,16.7,23.4,,00.0,0631.3,30.8
2021-03-26T12:48:00Z,00000200,01000000,0006.46,0003.95,0002.10,0000.87,0000.61,0000.63,0003.72,0003.50,0002.73,16.7,23.4,,00.0,0631.3,30.9
2021-03-26T12:49:00Z,00000200,01000000,0006.28,0003.29,0002.06,0000.55,0000.58,0000.40,0003.68,0003.16,0002.81,16.8,23.4,,00.0,0631.4,30.9
2021-03-26T12:50:00Z,00000200,01000000,0005.75,0003.42,0002.16,0000.58,0000.73,0000.46,0003.79,0003.62,0002.68,16.8,23.4,,00.0,0631.4,30.9
2021-03-26T12:51:00Z,00000200,01000000,0005.54,0003.41,0001.90,0000.82,0000.67,0000.47,0003.95,0003.55,0002.94,16.9,23.5,,00.0,0631.4,30.9
2021-03-26T12:52:00Z,00000200,01000000,0005.98,0003.53,0002.36,0000.32,0000.52,0000.47,0003.88,0003.40,0002.54,16.9,23.5,,00.0,0631.4,30.9
2021-03-26T12:53:00Z,00000200,01000000,0005.75,0003.78,0002.16,0001.17,0000.66,0000.80,0003.79,0003.85,0002.95,16.9,23.5,,00.0,0631.4,30.9
2021-03-26T12:54:00Z,00000200,01000000,0005.37,0003.44,0002.00,0001.26,0000.57,0000.21,0003.64,0003.11,0002.48,17.0,23.6,,00.0,0631.4,30.9
2021-03-26T12:55:00Z,00000200,01000000,0005.59,0003.58,0002.01,0000.66,0000.66,0000.54,0004.04,0003.90,0003.20,17.0,23.6,,00.0,0631.4,30.9
2021-03-26T12:56:00Z,00000200,01000000,0006.30,0003.60,0002.17,0000.67,0000.72,0000.44,0003.75,0003.62,0002.54,17.0,23.6,,00.0,0631.4,30.9
2021-03-26T12:57:00Z,00000200,41000000,,,,,,,-000.77,-000.48,-000.25,17.1,23.5,,00.0,0631.3,30.9
2021-03-26T12:58:00Z,00000200,61000000,,,,,,,0000.71,0000.31,0000.17,16.7,23.7,,00.0,0630.4,30.9
2021-03-26T12:59:00Z,00000200,21000000,,,,,,,0000.38,0000.10,0000.12,16.6,23.8,,00.0,0630.4,30.9
